Location: Skalnate Pleso
(49.1889°N, 20.2450°E)
Time: 11:27:31
(UTC+01:00)

Cosmos 468 - Pass Details

Date: 19 November 2019
Orbit: 761 x 784 km, 74.0° (Epoch: 12 December)

Event Time Altitude Azimuth Distance (km) Brightness Sun altitude
Exits shadow 04:49:41 16° 337° (NNW) 1,953 6.3 -20.1°
Maximum altitude 04:54:00 87° 67° (ENE) 786 4.5 -19.4°
Drops below altitude 10° 04:59:17 10° 157° (SSE) 2,316 7.4 -18.6°
Sets 05:01:39 0° 158° (SSE) 3,235 8.2 -18.2°
